Weather History for St. Johns, AZ

Change the Weather History Date:

Wednesday, November 16, 2011

  Actual Average (KSOW) Record (KSOW)
Temperature  
Mean Temperature 42 °F -  
Max Temperature 55 °F 53 °F 75 °F (1967)
Min Temperature 30 °F 32 °F 12 °F (1970)
Degree Days  
Heating Degree Days 22    
Moisture  
Dew Point 27 °F    
Average Humidity 58    
Maximum Humidity 92    
Minimum Humidity 24    
Precipitation  
Precipitation 0.00 in - - ()
Sea Level Pressure  
Sea Level Pressure 30.12 in    
Wind  
Wind Speed 5 mph (West)    
Max Wind Speed 10 mph    
Max Gust Speed -    
Visibility 10 miles    
Events Rain    
Averages and records for this station are not official NWS values.
T = Trace of Precipitation, MM = Missing Value Source: NWS Daily Summary

Daily Weather History Graph

Daily Weather History Graph

Search for Another Location

Airport:

Trip Planner

Search our weather history database for the weather conditions in past years. The results will help you decide how hot, cold, wet, or windy it might be!

Date:

Astronomy

Nov. 16, 2011 Rise Set
Actual Time 6:51 AM MST 5:12 PM MST
Civil Twilight 6:25 AM MST 5:39 PM MST
Nautical Twilight 5:54 AM MST 6:09 PM MST
Astronomical Twilight 5:24 AM MST 6:39 PM MST
Moon 10:27 PM MST (11/16) 11:31 AM MST (11/16)
Length of Visible Light 11h 14m
Length of Day
10h 20m
Waning Gibbous, 69% of the Moon is Illuminated
Nov 16
Waning Gibbous
Nov 18
Last Quarter
Nov 24
New
Dec 2
First Quarter
Dec 10
Full

Hourly Weather History & Observations

Time (MST) Temp. Windchill Dew Point Humidity Pressure Visibility Wind Dir Wind Speed Gust Speed Precip Events Conditions
12:54 AM 39.9 °F 33.4 °F 34.0 °F 79% 29.97 in 10.0 mi WSW 10.4 mph - 0.00 in Rain Light Rain
1:54 AM 39.0 °F 32.8 °F 34.0 °F 82% 29.96 in 10.0 mi WSW 9.2 mph - 0.00 in   Clear
2:54 AM 37.9 °F 35.5 °F 33.1 °F 83% 29.97 in 10.0 mi SW 3.5 mph - N/A   Clear
3:54 AM 37.0 °F - 32.0 °F 82% 29.99 in 10.0 mi Calm Calm - N/A   Clear
4:54 AM 33.8 °F - 30.2 °F 87% 30.11 in 10.0 mi Calm Calm - N/A   Clear
5:54 AM 30.0 °F 26.5 °F 28.0 °F 92% 30.09 in 10.0 mi South 3.5 mph - N/A   Clear
6:54 AM 33.1 °F - 28.9 °F 85% 30.12 in 10.0 mi Calm Calm - N/A   Clear
7:54 AM 37.9 °F - 32.0 °F 79% 30.14 in 10.0 mi Calm Calm - N/A   Clear
8:54 AM 43.0 °F - 33.1 °F 68% 30.14 in 10.0 mi Calm Calm - N/A   Clear
9:54 AM 46.0 °F - 32.0 °F 58% 30.15 in 10.0 mi Calm Calm - N/A   Clear
10:54 AM 48.9 °F - 32.0 °F 52% 30.14 in 10.0 mi Calm Calm - N/A   Clear
11:54 AM 51.1 °F - 27.0 °F 39% 30.14 in 10.0 mi NW 8.1 mph - N/A   Clear
12:54 PM 52.0 °F - 26.1 °F 37% 30.12 in 10.0 mi NNW 4.6 mph - N/A   Clear
1:51 PM 53.6 °F - 26.6 °F 35% 30.21 in 4.0 mi Variable 4.6 mph - N/A   Haze
1:54 PM 54.0 °F - 25.0 °F 33% 30.10 in 5.0 mi WNW 6.9 mph - N/A   Haze
2:54 PM 55.0 °F - 23.0 °F 29% 30.10 in 10.0 mi West 9.2 mph - N/A   Clear
3:54 PM 53.6 °F - 17.6 °F 24% 30.21 in 10.0 mi WNW 6.9 mph - N/A   Clear
4:54 PM 52.0 °F - 19.0 °F 27% 30.15 in 10.0 mi WNW 6.9 mph - N/A   Clear
5:54 PM 43.0 °F - 21.0 °F 42% 30.22 in 10.0 mi Calm Calm - N/A   Clear
6:54 PM 37.9 °F - 21.0 °F 51% 30.25 in 10.0 mi Calm Calm - N/A   Clear
7:54 PM 36.0 °F - 21.0 °F 55% 30.25 in 10.0 mi Calm Calm - N/A   Clear